TimeEDT,TemperatureF,Dew PointF,Humidity,Sea Level PressureIn,VisibilityMPH,Wind Direction,Wind SpeedMPH,Gust SpeedMPH,PrecipitationIn,Events,Conditions,WindDirDegrees,DateUTC
12:33 AM,39.2,39.2,100,30.03,2.0,Calm,Calm,-,N/A,,Partly Cloudy,0,2013-09-30 04:33:00
12:35 AM,39.2,39.2,100,30.03,1.5,Calm,Calm,-,N/A,,Scattered Clouds,0,2013-09-30 04:35:00
12:40 AM,41.0,41.0,100,30.03,0.8,Calm,Calm,-,N/A,,Mostly Cloudy,0,2013-09-30 04:40:00
12:47 AM,41.0,39.2,93,30.03,1.2,Calm,Calm,-,N/A,,Mostly Cloudy,0,2013-09-30 04:47:00
12:51 AM,39.2,39.2,100,30.02,4.0,Calm,Calm,-,N/A,,Mostly Cloudy,0,2013-09-30 04:51:00
12:53 AM,39.9,39.9,100,30.04,9.0,Calm,Calm,-,N/A,,Mostly Cloudy,0,2013-09-30 04:53:00
1:14 AM,39.2,39.2,100,30.03,1.2,East,3.5,-,N/A,,Overcast,80,2013-09-30 05:14:00
1:16 AM,39.2,39.2,100,30.03,0.8,ENE,3.5,-,N/A,,Overcast,70,2013-09-30 05:16:00
1:53 AM,42.1,42.1,100,30.04,0.2,Calm,Calm,-,N/A,Fog,Fog,0,2013-09-30 05:53:00
2:53 AM,42.1,42.1,100,30.04,0.5,Calm,Calm,-,N/A,Fog,Fog,0,2013-09-30 06:53:00
3:53 AM,44.1,44.1,100,30.02,0.2,Calm,Calm,-,N/A,Fog,Fog,0,2013-09-30 07:53:00
4:53 AM,45.0,45.0,100,30.02,0.2,Calm,Calm,-,N/A,Fog,Fog,0,2013-09-30 08:53:00
5:53 AM,46.9,46.9,100,30.02,0.2,Calm,Calm,-,N/A,Fog,Fog,0,2013-09-30 09:53:00
6:53 AM,48.0,48.0,100,30.04,0.2,Calm,Calm,-,0.01,Fog,Fog,0,2013-09-30 10:53:00
7:53 AM,48.0,46.9,96,30.05,0.2,Calm,Calm,-,N/A,Fog,Fog,0,2013-09-30 11:53:00
8:53 AM,50.0,50.0,100,30.04,0.5,Calm,Calm,-,N/A,Fog,Fog,0,2013-09-30 12:53:00
9:53 AM,52.0,52.0,100,30.03,0.2,Calm,Calm,-,N/A,Fog,Fog,0,2013-09-30 13:53:00
10:16 AM,53.6,53.6,100,30.00,1.2,Calm,Calm,-,N/A,,Overcast,0,2013-09-30 14:16:00
10:19 AM,53.6,51.8,94,30.00,3.0,ESE,3.5,-,N/A,,Overcast,120,2013-09-30 14:19:00
10:28 AM,51.8,51.8,100,30.00,1.8,Calm,Calm,-,N/A,,Overcast,0,2013-09-30 14:28:00
10:35 AM,53.6,53.6,100,30.00,1.2,Calm,Calm,-,N/A,,Overcast,0,2013-09-30 14:35:00
10:38 AM,53.6,53.6,100,30.00,2.5,SSW,4.6,-,N/A,,Overcast,210,2013-09-30 14:38:00
10:45 AM,51.8,51.8,100,30.00,7.0,SSW,3.5,-,N/A,,Overcast,200,2013-09-30 14:45:00
10:53 AM,53.1,52.0,96,30.02,10.0,South,4.6,-,N/A,,Mostly Cloudy,180,2013-09-30 14:53:00
11:17 AM,53.6,51.8,94,30.00,10.0,SW,4.6,-,N/A,,Mostly Cloudy,230,2013-09-30 15:17:00
11:44 AM,57.2,53.6,88,30.00,10.0,SW,6.9,-,N/A,,Mostly Cloudy,230,2013-09-30 15:44:00
11:53 AM,57.9,53.1,84,30.01,10.0,SSW,6.9,-,N/A,,Mostly Cloudy,210,2013-09-30 15:53:00
12:21 PM,59.0,51.8,77,30.00,10.0,SSW,5.8,-,N/A,,Overcast,210,2013-09-30 16:21:00
12:46 PM,60.8,51.8,72,30.00,10.0,SW,6.9,-,N/A,,Scattered Clouds,230,2013-09-30 16:46:00
12:53 PM,60.1,52.0,75,30.01,10.0,SW,5.8,-,N/A,,Partly Cloudy,220,2013-09-30 16:53:00
1:53 PM,62.1,48.9,62,29.98,10.0,SSW,6.9,-,N/A,,Partly Cloudy,210,2013-09-30 17:53:00
2:53 PM,66.0,48.9,54,29.96,10.0,SW,8.1,-,N/A,,Scattered Clouds,220,2013-09-30 18:53:00
3:53 PM,66.0,48.0,52,29.95,10.0,SW,6.9,-,N/A,,Clear,230,2013-09-30 19:53:00
4:53 PM,64.9,48.9,56,29.93,10.0,SSW,6.9,-,N/A,,Clear,200,2013-09-30 20:53:00
5:53 PM,64.9,48.9,56,29.93,10.0,SSW,5.8,-,N/A,,Clear,200,2013-09-30 21:53:00
6:53 PM,60.1,50.0,69,29.93,10.0,South,4.6,-,N/A,,Clear,190,2013-09-30 22:53:00
7:53 PM,57.9,50.0,75,29.93,10.0,South,4.6,-,N/A,,Clear,180,2013-09-30 23:53:00
8:53 PM,55.9,50.0,80,29.94,10.0,South,5.8,-,N/A,,Clear,180,2013-10-01 00:53:00
9:53 PM,55.0,50.0,83,29.94,10.0,SSE,5.8,-,N/A,,Clear,160,2013-10-01 01:53:00
10:53 PM,54.0,48.9,83,29.94,10.0,South,5.8,-,N/A,,Clear,180,2013-10-01 02:53:00
11:53 PM,54.0,48.9,83,29.94,10.0,South,4.6,-,N/A,,Clear,170,2013-10-01 03:53:00